{"data":{"norad_id":59850,"epoch":"2026-09-21T00:55:29.418816Z","epoch_age_seconds":127973,"freshness":"FRESH","line1":"1 59850U 24097R   26264.03853494  .00000648  00000+0  33058-4 0  9995","line2":"2 59850  43.0026 251.0691 0001382 274.6713  85.3981 15.27576743131794","mean_motion":15.27576743,"eccentricity":0.0001382,"inclination_deg":43.0026,"raan_deg":251.0691,"arg_perigee_deg":274.6713,"mean_anomaly_deg":85.3981,"bstar":3.3058e-5,"rev_number":13179,"period_min":94.266949703096,"perigee_km":482.11063142039,"apogee_km":484.00706595297,"semimajor_km":6861.1958486867,"source":"CELESTRAK","updated_at":"2026-09-22T09:00:49.098405Z"}}